Location: Santiago
(33.4378°S, 70.6505°W)
Time: 06:57:53
(UTC+00:00)

ISS - Pass Details

Date: 01 November 2024
Orbit: 407 x 418 km, 51.6° (Epoch: 11 November)

Event Time Altitude Azimuth Distance (km) Brightness Sun altitude
Rises 00:29:45 0° 240° (WSW) 2,396 2.0 -16.1°
Reaches altitude 10° 00:32:09 10° 255° (WSW) 1,523 0.3 -16.5°
Maximum altitude 00:34:54 23° 309° (NW) 963 -1.7 -17.0°
Enters shadow 00:36:33 16° 348° (NNW) 1,189 -1.7 -17.3°
